Weather observations for the past three days for
Eagles Nest Airport
Imperial (Metric)
Date Time (edt) Wind (mph) Vis. (mi.) Weather Sky Cond. Temperature (ºF) Relative Humidity Wind Chill (°F) Heat Index (°F) Pressure Precipitation (in)
Air Dwpt 6 hour altimeter (in) sea level (mb) 1 hr 3 hr 6 hr
Max. Min.
25 13:35 SW 12 10.00 Mostly Cloudy BKN060 84 56.5 39% 83 30.02 0.0
25 13:15 S 7 10.00 Mostly Cloudy BKN060 83.1 56.7 40% 83 30.02 0.0
25 12:55 SW 5 10.00 Partly Cloudy SCT060 83.1 56.8 41% 83 30.02 0.0
25 12:35 S 6 10.00 Partly Cloudy SCT060 83.3 56.8 41% 83 30.02 0.0
25 12:15 S 5 10.00 Fair CLR 81.3 56.1 42% 81 30.04 0.0
25 11:35 S 6 10.00 Fair CLR 80.6 55.9 43% 81 30.06 0.0
25 11:15 SW 5 10.00 Fair CLR 79.7 56.1 44% 80 30.07 0.0
25 10:55 S 7 10.00 Fair CLR 78.3 55.6 46% 79 30.07 0.0
25 10:35 SW 5 10.00 Fair CLR 77.7 55.2 46% 79 30.07 0.0
25 10:15 S 3 10.00 Fair CLR 76.3 55.8 49% 78 30.08 0.0
25 09:55 E 3 10.00 Fair CLR 74.8 56.5 53% 30.08 0.0
25 09:35 Calm 10.00 Fair CLR 73.6 56.8 56% 30.09 0.0
25 09:15 Calm 10.00 Fair CLR 72.9 57.6 59% 30.06 0.0
25 08:55 N 6 10.00 Fair CLR 71.6 58.1 63% 30.08 0.0
25 08:35 Calm 10.00 Fair CLR 68.5 56.7 66% 30.05 0.0
25 08:15 Calm 10.00 Fair CLR 66.2 56.5 71% 30.07 0.0
25 07:55 Calm 10.00 Fair CLR 64.6 55.9 64.6 57.2 74% 30.06 0.0
25 07:35 SW 3 10.00 Fair CLR 62.6 55.2 77% 30.06 0.0
25 07:15 S 3 10.00 Fair CLR 61.2 55 80% 30.05 0.0
25 06:55 S 3 10.00 Fair CLR 60.3 54.9 82% 30.05 0.0
25 06:35 SW 3 10.00 Fair CLR 58.5 54.3 86% 30.06 0.0
25 06:15 SW 5 10.00 Fair CLR 57.6 53.8 87% 30.05 0.0
25 05:55 SW 3 10.00 Fair CLR 57.2 53.6 88% 30.06 0.0
25 05:35 S 3 10.00 Fair CLR 57.2 53.8 88% 30.06 0.0
25 05:15 SW 3 10.00 Fair CLR 57.2 53.6 88% 30.07 0.0
25 04:55 Calm 10.00 Fair CLR 57.6 53.4 86% 30.08 0.0
25 04:35 SW 3 10.00 Fair CLR 57.6 53.8 87% 30.08 0.0
25 04:15 Calm 10.00 Fair CLR 58.5 53.8 85% 30.07 0.0
25 03:55 Calm 10.00 Fair CLR 58.3 53.6 85% 30.07 0.0
25 03:35 Calm 10.00 Fair CLR 59.7 53.8 81% 30.05 0.0
25 03:15 Calm 10.00 Fair CLR 60.1 53.8 80% 30.05 0.0
25 02:55 SW 3 10.00 Fair CLR 60.3 53.8 79% 30.04 0.0
25 02:35 NW 3 10.00 Fair CLR 60.8 54.1 79% 30.03 0.0
25 02:15 Calm 10.00 Fair CLR 61.2 53.8 77% 30.03 0.0
25 01:55 Calm 10.00 Fair CLR 62.4 53.6 78.8 61.7 73% 30.03 0.0
25 01:35 SW 3 10.00 Fair CLR 62.6 53.6 73% 30.04 0.0
25 01:15 S 3 10.00 Fair CLR 61.9 53.8 75% 30.04 0.0
25 00:55 Calm 10.00 Fair CLR 62.8 54.1 74% 30.03 0.0
25 00:35 SW 3 10.00 Fair CLR 63.3 54 72% 30.03 0.0
25 00:15 Calm 10.00 Fair CLR 64.6 53.8 68% 30.03 0.0
24 23:55 Calm 10.00 Fair CLR 64.6 54 69% 30.02 0.0
24 23:35 Calm 10.00 Fair CLR 66.6 53.6 63% 30.01 0.0
24 23:15 S 3 10.00 Fair CLR 68 53.6 60% 30.01 0.0
24 22:55 NW 5 10.00 Fair CLR 68.7 53.6 59% 30 0.0
24 22:35 Calm 10.00 Fair CLR 68.9 53.6 58% 30 0.0
24 22:15 Calm 10.00 Fair CLR 70.9 53.4 54% 30 0.0
24 21:55 Calm 10.00 Fair CLR 72.1 52.9 51% 29.98 0.0
24 21:35 Calm 10.00 Fair CLR 73.4 52.7 48% 29.98 0.0
24 21:15 Calm 10.00 Fair CLR 74.1 52.2 46% 29.97 0.0
24 20:55 N 3 10.00 Fair CLR 75.7 51.8 43% 78 29.96 0.0
24 20:35 N 6 10.00 Fair CLR 77 51.8 42% 78 29.96 0.0
24 20:15 N 6 10.00 Fair CLR 77.9 53.2 42% 79 29.95 0.0
24 19:55 N 7 10.00 Fair CLR 78.8 53.1 86.4 78.8 41% 79 29.95 0.0
24 19:35 N 9 10.00 Fair CLR 80.1 52.7 39% 80 29.94 0.0
24 19:15 N 8 G 17 10.00 Fair CLR 81 51.8 36% 80 29.93 0.0
24 18:55 N 12 G 17 10.00 Fair CLR 81.3 52.2 36% 81 29.92 0.0
24 18:35 N 9 10.00 Fair CLR 81.7 52.2 36% 81 29.91 0.0
24 18:15 N 9 G 17 10.00 Partly Cloudy SCT085 82.4 51.6 34% 81 29.91 0.0
24 17:55 N 10 10.00 Partly Cloudy SCT070 SCT095 84.2 52.7 34% 83 29.9 0.0
24 17:35 NW 14 G 22 10.00 Mostly Cloudy SCT070 BKN095 84.9 53.4 34% 83 29.9 0.0
24 17:15 N 13 G 18 10.00 Partly Cloudy SCT095 83.7 51.6 33% 82 29.89 0.0
24 16:55 N 8 G 17 10.00 Partly Cloudy SCT095 84.7 52.7 33% 83 29.89 0.0
24 16:35 N 10 G 18 10.00 Partly Cloudy SCT085 85.5 52.2 32% 83 29.89 0.0
24 16:15 N 9 G 17 10.00 Partly Cloudy SCT085 84.9 53.4 34% 83 29.88 0.0
24 15:55 N 10 G 17 10.00 Mostly Cloudy BKN085 84.2 52.9 34% 83 29.88 0.0
24 15:35 N 7 10.00 Partly Cloudy SCT085 SCT095 86.2 50.9 30% 84 29.88 0.0
24 15:15 N 12 G 21 10.00 Partly Cloudy SCT080 84.6 53.8 35% 83 29.89 0.0
24 14:55 N 10 G 17 10.00 Partly Cloudy SCT070 85.5 53.8 34% 84 29.89 0.0
24 14:35 N 12 G 18 10.00 Partly Cloudy SCT070 84.7 53.1 34% 83 29.88 0.0
24 14:15 NW 12 G 16 10.00 Partly Cloudy SCT065 SCT085 84.9 55.4 36% 84 29.89 0.0
24 13:55 N 13 G 17 10.00 Mostly Cloudy SCT065 BKN085 84.4 56.5 84.4 76.1 39% 83 29.89 0.0
24 13:35 N 6 G 16 10.00 Mostly Cloudy SCT075 BKN085 83.5 55.2 38% 83 29.89 0.0
24 13:15 NW 8 10.00 Overcast SCT070 OVC080 82.8 55.9 40% 82 29.89 0.0
24 12:55 N 9 10.00 Mostly Cloudy SCT070 BKN080 82.2 56.1 41% 82 29.89 0.0
24 12:35 NW 7 10.00 Mostly Cloudy SCT060 SCT070 BKN080 83.1 55.8 39% 82 29.89 0.0
24 12:15 N 10 G 16 10.00 Mostly Cloudy SCT060 BKN085 82.4 55.9 40% 82 29.89 0.0
24 11:55 NW 12 G 17 10.00 Partly Cloudy SCT060 SCT070 82.4 55.8 40% 82 29.88 0.0
24 11:35 NW 13 G 21 10.00 Partly Cloudy SCT070 82.6 55.9 40% 82 29.88 0.0
24 11:15 N 12 G 21 10.00 Partly Cloudy SCT075 82 57.7 44% 82 29.88 0.0
24 10:55 N 6 10.00 Mostly Cloudy SCT048 SCT060 BKN075 82.4 61.3 49% 83 29.87 0.0
24 10:35 N 13 G 18 10.00 Mostly Cloudy BKN048 BKN055 BKN070 81.7 61.5 51% 82 29.87 0.0
24 10:15 N 7 G 18 10.00 Partly Cloudy SCT048 SCT055 80.4 61 52% 81 29.86 0.0
24 09:55 NW 8 10.00 Partly Cloudy SCT045 80.6 61 51% 81 29.86 0.0
24 09:35 NW 12 G 18 10.00 Mostly Cloudy SCT041 BKN050 79.2 61.5 55% 80 29.86 0.0
24 09:15 W 6 10.00 Partly Cloudy SCT041 SCT046 78.6 61.7 56% 80 29.86 0.0
24 08:55 W 8 10.00 Fair CLR 77.9 61.5 57% 79 29.86 0.0
24 08:35 W 3 10.00 Fair CLR 77.2 63.5 63% 79 29.85 0.0
24 08:15 W 6 10.00 Fair CLR 76.5 63.7 65% 78 29.84 0.0
24 07:55 W 5 10.00 Fair CLR 76.1 64.2 76.1 71.2 67% 78 29.84 0.0
24 07:35 NW 6 10.00 Partly Cloudy SCT080 SCT110 74.5 64.4 71% 29.83 0.0
24 07:15 NW 6 10.00 Partly Cloudy SCT080 SCT100 75.2 63.9 68% 77 29.82 0.0
24 06:55 Calm 10.00 Partly Cloudy SCT050 73 65.3 77% 29.82 0.0
24 06:35 W 5 10.00 Partly Cloudy SCT046 SCT050 72.1 66.2 82% 29.82 0.0
24 06:15 W 3 10.00 Partly Cloudy SCT044 71.6 66.4 84% 29.81 0.0
24 05:55 Calm 10.00 Partly Cloudy SCT060 71.8 66.4 83% 29.8 0.0
24 05:35 W 5 10.00 Partly Cloudy SCT060 72.3 66.6 82% 29.79 0.0
24 05:15 Calm 10.00 Partly Cloudy SCT042 SCT060 72.7 66.7 82% 29.79 0.0
24 04:55 W 5 10.00 Mostly Cloudy SCT033 BKN042 72.9 67.1 82% 29.79 0.0
24 04:35 NW 5 10.00 Overcast SCT033 OVC042 73.4 67.1 81% 29.79 0.0
24 04:15 SW 5 10.00 Mostly Cloudy BKN044 72.1 67.1 84% 29.79 0.0
24 03:55 W 3 10.00 Fair CLR 71.4 67.1 86% 29.79 0.0
24 03:35 Calm 10.00 Partly Cloudy SCT100 SCT120 72.7 66.7 82% 29.78 0.0
24 03:15 SW 5 10.00 Mostly Cloudy BKN090 BKN120 72.3 67.3 84% 29.78 0.0
24 02:55 Calm 10.00 Partly Cloudy SCT090 SCT120 73.2 67.1 81% 29.79 0.0
24 02:35 Calm 10.00 Fair CLR 73.8 66.6 78% 29.78 0.0
24 02:15 Calm 10.00 Partly Cloudy SCT047 SCT050 SCT090 73.8 66.7 79% 29.78 0.0
24 01:55 W 5 10.00 Partly Cloudy SCT047 SCT110 73.4 67.1 85.1 73.4 81% 29.8 0.0 0.01 0.01
24 01:35 Calm 10.00 Mostly Cloudy SCT050 SCT065 BKN120 75.7 65.1 70% 77 29.8 0.0
24 01:15 W 5 10.00 Mostly Cloudy SCT050 SCT065 BKN120 79.7 62.8 56% 81 29.8 0.0
24 00:55 SW 5 10.00 Mostly Cloudy SCT055 BKN065 BKN120 79.7 62.8 56% 81 29.79 0.0
24 00:35 SW 6 10.00 Overcast SCT055 OVC120 79.5 63 57% 81 29.79 0.0
24 00:15 Calm 10.00 Mostly Cloudy BKN120 78.8 63.5 60% 80 29.79 0.0
23 23:55 SW 3 10.00 Fair CLR 78.4 63.5 60% 80 29.79 0.0
23 23:35 Calm 10.00 Fair CLR 79.7 63.5 58% 81 29.79 0.0
23 23:15 Calm 10.00 Fair CLR 78.8 63.9 60% 80 29.79 0.0
23 22:55 Calm 10.00 Partly Cloudy SCT075 SCT120 80.6 63.5 56% 82 29.8 0.0
23 22:35 SW 5 10.00 Mostly Cloudy BKN110 81.5 63.5 54% 83 29.81 0.0
23 22:15 W 7 10.00 Overcast OVC110 81.9 63.1 53% 83 29.8 0.0
23 21:55 SW 6 10.00 Overcast BKN085 OVC110 81.9 63 53% 83 29.8 0.0
23 21:35 Calm 10.00 Mostly Cloudy SCT085 BKN110 82.6 62.8 51% 84 29.8 0.0
23 20:35 SW 5 10.00 Overcast BKN085 OVC100 84.2 62.1 47% 85 29.79 0.0
23 19:55 SW 3 10.00 Overcast BKN075 OVC100 85.1 61.7 90.9 85.1 45% 86 29.79 0.0
23 19:35 SW 5 10.00 Overcast OVC100 85.6 61.3 44% 86 29.79 0.0
23 19:15 SW 6 10.00 Mostly Cloudy BKN110 85.6 61.7 45% 86 29.8 0.0
23 18:55 W 8 10.00 Mostly Cloudy SCT100 BKN120 86.2 63 46% 87 29.8 0.0
23 18:35 SW 3 10.00 Overcast OVC100 86.2 62.8 46% 87 29.8 0.0
23 18:15 W 6 10.00 Mostly Cloudy BKN110 86.9 62.6 44% 88 29.8 0.0
23 17:55 W 7 10.00 Fair CLR 88.2 62.8 43% 89 29.81 0.0
23 17:35 W 6 10.00 Fair CLR 88.7 62.6 42% 89 29.81 0.0
23 17:15 Calm 10.00 Fair CLR 87.1 61.5 42% 87 29.81 0.0
23 16:55 W 8 10.00 Fair CLR 87.8 61.3 41% 88 29.82 0.0
23 16:35 W 8 G 17 10.00 Partly Cloudy SCT075 88.2 62.8 43% 89 29.83 0.0
23 16:15 W 7 10.00 Partly Cloudy SCT065 SCT075 88.7 63.9 44% 90 29.83 0.0
23 15:55 W 5 10.00 Partly Cloudy SCT065 89.2 63.7 43% 90 29.83 0.0
23 15:35 SW 8 G 17 10.00 Partly Cloudy SCT065 89.1 62.6 41% 90 29.83 0.0
23 15:15 W 8 10.00 Partly Cloudy SCT065 SCT080 89.2 63.7 43% 90 29.83 0.0
23 14:55 SW 10 G 22 10.00 Partly Cloudy SCT065 SCT080 90 63 41% 91 29.83 0.0
23 14:35 SW 13 G 23 10.00 Fair CLR 90 63.1 41% 91 29.84 0.0
23 14:15 SW 10 G 18 10.00 Mostly Cloudy BKN060 BKN080 88.9 63.3 43% 90 29.85 0.0
23 13:55 SW 5 10.00 Mostly Cloudy SCT060 BKN070 88.2 64.2 91.8 77.4 45% 90 29.86 0.0
23 13:35 SW 9 10.00 Partly Cloudy SCT060 SCT070 89.8 64.8 44% 92 29.87 0.0
23 13:15 W 10 G 22 10.00 Fair CLR 91.8 64.8 41% 94 29.87 0.0
23 12:55 SW 13 G 21 10.00 Fair CLR 89.8 64 42% 91 29.88 0.0
23 12:35 SW 13 G 20 10.00 Fair CLR 87.8 63.5 44% 89 29.89 0.0
23 12:15 SW 15 G 25 10.00 Partly Cloudy SCT050 89.8 64.4 43% 91 29.89 0.0
23 11:55 W 10 G 18 10.00 Fair CLR 87.8 65.1 47% 90 29.9 0.0
23 11:35 W 8 10.00 Fair CLR 87.1 65.8 49% 89 29.91 0.0
23 11:15 SW 10 G 17 10.00 Fair CLR 86.2 66.4 52% 89 29.91 0.0
23 10:55 SW 7 10.00 Fair CLR 85.6 66.6 53% 88 29.92 0.0
23 10:35 SW 8 10.00 Fair CLR 85.1 66.2 53% 87 29.92 0.0
23 10:15 SW 9 10.00 Fair CLR 84.6 66.2 54% 87 29.92 0.0
23 09:55 SW 9 10.00 Fair CLR 84.9 66.2 54% 87 29.92 0.0
23 09:35 SW 13 G 20 10.00 Fair CLR 83.8 65.8 55% 86 29.92 0.0
23 09:15 SW 10 G 17 10.00 Fair CLR 82.4 65.5 57% 84 29.93 0.0
23 08:55 SW 6 10.00 Fair CLR 82.6 65.3 56% 84 29.93 0.0
23 08:35 SW 6 10.00 Fair CLR 81.3 64.9 58% 83 29.94 0.0
23 08:15 SW 5 10.00 Fair CLR 77.4 64.4 64% 79 29.95 0.0
23 07:55 SW 5 10.00 Fair CLR 78.1 64.6 80.1 72.1 63% 80 29.94 0.0
23 07:35 SW 6 10.00 Fair CLR 80.1 64.9 60% 82 29.94 0.0
23 07:15 SW 7 10.00 Fair CLR 78.8 64.9 63% 81 29.94 0.0
23 06:55 SW 6 10.00 Fair CLR 77.5 64.8 65% 79 29.94 0.0
23 06:35 SW 8 10.00 Fair CLR 77 64.8 66% 79 29.94 0.0
23 06:15 SW 7 10.00 Fair CLR 76.1 64.8 68% 78 29.95 0.0
23 05:55 SW 6 10.00 Fair CLR 76.5 64.6 67% 78 29.94 0.0
23 05:35 SW 6 10.00 Fair CLR 76.5 64.4 66% 78 29.95 0.0
23 05:15 W 5 10.00 Fair CLR 74.8 63 67% 29.95 0.0
23 04:55 S 3 10.00 Fair CLR 74.3 62.8 67% 29.96 0.0
23 04:35 Calm 10.00 Fair CLR 74.3 62.6 67% 29.95 0.0
23 04:15 SW 3 10.00 Fair CLR 73.2 63 70% 29.95 0.0
23 03:55 Calm 10.00 Fair CLR 73.2 63 70% 29.95 0.0
23 03:35 Calm 10.00 Fair CLR 74.8 62.6 66% 29.96 0.0
23 03:15 Calm 10.00 Fair CLR 73.9 62.6 68% 29.96 0.0
23 02:55 Calm 10.00 Fair CLR 73 62.6 70% 29.97 0.0
23 02:35 Calm 10.00 Fair CLR 73.8 62.2 67% 29.97 0.0
23 02:15 Calm 10.00 Fair CLR 74.8 61.9 64% 29.98 0.0
23 01:55 SW 3 10.00 Fair CLR 76.1 62.2 87.4 75.9 62% 78 29.98 0.0
23 01:35 Calm 10.00 Fair CLR 76.5 62.2 62% 78 29.99 0.0
23 01:15 SW 5 10.00 Fair CLR 76.5 62.1 61% 78 29.99 0.0
23 00:55 SW 3 10.00 Fair CLR 77 61.9 60% 79 29.99 0.0
23 00:35 SW 6 10.00 Fair CLR 77.2 61.3 58% 79 29.99 0.0
23 00:15 S 5 10.00 Fair CLR 77.4 60.8 57% 79 30 0.0
22 23:55 SW 5 10.00 Fair CLR 77.2 59.9 55% 79 30 0.0
22 23:35 S 5 10.00 Fair CLR 77.4 58.8 53% 79 30 0.0
22 23:15 SW 5 10.00 Fair CLR 77.9 57.9 50% 79 30 0.0
22 22:55 SW 5 10.00 Fair CLR 78.3 57.2 48% 79 30 0.0
22 22:35 SW 5 10.00 Fair CLR 78.8 57.4 48% 80 30 0.0
22 22:15 SW 6 10.00 Fair CLR 79.2 57.4 47% 80 30.01 0.0
22 21:55 S 5 10.00 Fair CLR 79.5 58.1 48% 80 30.01 0.0
22 21:35 SW 6 10.00 Fair CLR 80.4 59 48% 81 30 0.0
22 21:15 S 5 10.00 Fair CLR 81.7 59.4 47% 82 30 0.0
22 20:55 S 5 10.00 Fair CLR 82.9 59.9 46% 83 30 0.0
22 20:35 S 7 10.00 Fair CLR 85.1 59.9 43% 85 30 0.0
22 20:15 S 6 10.00 Fair CLR 86.4 60.4 42% 86 30 0.0
22 19:55 S 5 10.00 Fair CLR 87.8 60.8 93.4 87.8 40% 88 30 0.0
22 19:35 S 6 10.00 Fair CLR 88.9 60.8 39% 89 30 0.0
22 19:15 S 6 10.00 Fair CLR 89.8 60.6 38% 90 30 0.0
22 18:55 S 9 10.00 Fair CLR 90.5 61.3 38% 91 29.99 0.0
22 18:35 S 10 10.00 Fair CLR 90.7 62.1 38% 91 30 0.0
22 18:15 S 12 10.00 Fair CLR 91.2 62.4 38% 92 30 0.0
22 17:55 S 10 10.00 Fair CLR 92.1 62.2 37% 93 30 0.0
22 17:35 S 10 10.00 Fair CLR 92.1 64 39% 94 30 0.0
22 17:15 S 10 G 16 10.00 Fair CLR 92.3 65.1 41% 95 30.01 0.0
22 16:55 S 6 10.00 Fair CLR 92.5 65.5 41% 95 30.01 0.0
22 16:35 S 8 10.00 Fair CLR 92.8 64.9 40% 95 30.02 0.0
22 16:15 S 8 10.00 Fair CLR 92.7 65.8 41% 95 30.03 0.0
22 15:55 S 7 G 16 10.00 Fair CLR 92.3 66 42% 95 30.04 0.0
22 15:35 S 9 10.00 Fair CLR 92.3 66.2 42% 95 30.05 0.0
22 15:15 S 10 10.00 Partly Cloudy SCT065 SCT070 91.4 66.4 44% 94 30.05 0.0
22 14:55 S 8 10.00 Mostly Cloudy SCT055 BKN065 89.8 67.5 48% 93 30.06 0.0
22 14:35 S 9 10.00 Partly Cloudy SCT075 93 66.2 41% 96 30.07 0.0
22 14:15 S 7 10.00 Fair CLR 92.8 63.5 38% 94 30.07 0.0
22 13:55 W 6 10.00 Partly Cloudy SCT060 92.1 64.2 92.3 74.5 40% 94 30.08 0.0
Date Time (edt) Wind (mph) Vis. (mi.) Weather Sky Cond. Air Dwpt Max. Min. Relative Humidity Wind Chill (°F) Heat Index (°F) altimeter (in) sea level (mb) 1 hr 3 hr 6 hr
6 hour
Temperature (ºF) Pressure Precipitation (in)